Time,TemperatureF,DewpointF,PressureIn,WindDirection,WindDirectionDegrees,WindSpeedMPH,WindSpeedGustMPH,Humidity,HourlyPrecipIn,Conditions,Clouds,dailyrainin,SoftwareType,DateUTC
2013-06-07 00:02:00,54.4,53.6,30.06,North,360,0.0,0.0,97,0.05,,,0.07,Wunderground v.1.15,2013-06-07 04:02:00,
2013-06-07 00:03:00,54.4,53.6,30.06,North,360,0.0,0.0,97,0.05,,,0.07,Wunderground v.1.15,2013-06-07 04:03:00,
2013-06-07 00:04:00,54.4,53.6,30.06,North,360,0.0,0.0,97,0.04,,,0.07,Wunderground v.1.15,2013-06-07 04:04:00,
2013-06-07 00:05:00,54.4,53.6,30.06,North,360,0.0,0.0,97,0.04,,,0.07,Wunderground v.1.15,2013-06-07 04:05:00,
2013-06-07 00:06:00,54.4,53.6,30.06,North,360,0.0,0.0,97,0.04,,,0.07,Wunderground v.1.15,2013-06-07 04:06:00,
2013-06-07 00:11:00,54.4,53.6,30.06,North,360,0.0,0.0,97,0.00,,,0.08,Wunderground v.1.15,2013-06-07 04:11:00,
2013-06-07 00:17:00,54.4,53.6,30.05,North,360,0.0,0.0,97,0.00,,,0.08,Wunderground v.1.15,2013-06-07 04:17:00,
2013-06-07 00:22:00,54.4,53.6,30.05,North,360,0.0,0.0,97,0.00,,,0.08,Wunderground v.1.15,2013-06-07 04:22:00,
2013-06-07 00:28:00,54.4,53.6,30.04,North,360,0.0,0.0,97,0.00,,,0.08,Wunderground v.1.15,2013-06-07 04:28:00,
2013-06-07 00:34:00,54.4,53.6,30.04,North,360,0.0,0.0,97,0.00,,,0.08,Wunderground v.1.15,2013-06-07 04:34:00,
2013-06-07 00:39:00,54.4,53.6,30.04,North,360,0.0,0.0,97,0.00,,,0.08,Wunderground v.1.15,2013-06-07 04:39:00,
2013-06-07 00:45:00,54.4,53.6,30.03,North,360,0.0,0.0,97,0.00,,,0.09,Wunderground v.1.15,2013-06-07 04:45:00,
2013-06-07 00:51:00,54.2,53.4,30.03,North,360,0.0,0.0,97,0.00,,,0.09,Wunderground v.1.15,2013-06-07 04:51:00,
2013-06-07 00:56:00,54.2,53.4,30.03,North,360,0.0,1.0,97,0.00,,,0.09,Wunderground v.1.15,2013-06-07 04:56:00,
2013-06-07 01:02:00,54.2,53.4,30.03,North,360,0.0,0.0,97,0.00,,,0.09,Wunderground v.1.15,2013-06-07 05:02:00,
2013-06-07 01:08:00,54.2,53.4,30.03,North,360,0.0,0.0,97,0.00,,,0.09,Wunderground v.1.15,2013-06-07 05:08:00,
2013-06-07 01:14:00,54.2,53.4,30.02,North,360,0.0,0.0,97,0.00,,,0.09,Wunderground v.1.15,2013-06-07 05:14:00,
2013-06-07 01:19:00,54.1,53.3,30.02,North,360,0.0,0.0,97,0.00,,,0.09,Wunderground v.1.15,2013-06-07 05:19:00,
2013-06-07 01:25:00,54.1,53.3,30.02,North,360,0.0,0.0,97,0.00,,,0.10,Wunderground v.1.15,2013-06-07 05:25:00,
2013-06-07 01:30:00,54.2,53.4,30.01,North,360,0.0,0.0,97,0.00,,,0.10,Wunderground v.1.15,2013-06-07 05:30:00,
2013-06-07 01:36:00,54.2,53.4,30.01,North,360,0.0,0.0,97,0.00,,,0.10,Wunderground v.1.15,2013-06-07 05:36:00,
2013-06-07 01:42:00,54.2,53.4,30.01,North,360,0.0,0.0,97,0.00,,,0.10,Wunderground v.1.15,2013-06-07 05:42:00,
2013-06-07 01:48:00,54.1,53.3,30.01,North,360,0.0,0.0,97,0.00,,,0.10,Wunderground v.1.15,2013-06-07 05:48:00,
2013-06-07 01:54:00,54.1,53.3,30.01,North,360,0.0,0.0,97,0.00,,,0.11,Wunderground v.1.15,2013-06-07 05:54:00,
2013-06-07 01:59:00,53.9,53.1,30.00,North,360,0.0,0.0,97,0.08,,,0.12,Wunderground v.1.15,2013-06-07 05:59:00,
2013-06-07 02:04:00,53.9,53.1,30.00,North,360,0.0,0.0,97,0.07,,,0.12,Wunderground v.1.15,2013-06-07 06:04:00,
2013-06-07 02:09:00,53.9,53.1,30.00,North,360,0.0,0.0,97,0.05,,,0.13,Wunderground v.1.15,2013-06-07 06:09:00,
2013-06-07 02:14:00,53.9,53.1,30.00,North,360,0.0,0.0,97,0.05,,,0.13,Wunderground v.1.15,2013-06-07 06:14:00,
2013-06-07 02:19:00,53.8,53.0,30.00,North,360,0.0,0.0,97,0.08,,,0.14,Wunderground v.1.15,2013-06-07 06:19:00,
2013-06-07 02:24:00,53.8,53.0,30.00,North,360,0.0,0.0,97,0.08,,,0.15,Wunderground v.1.15,2013-06-07 06:24:00,
2013-06-07 02:29:00,53.8,53.2,30.00,North,360,0.0,0.0,98,0.12,,,0.16,Wunderground v.1.15,2013-06-07 06:29:00,
2013-06-07 02:34:00,53.6,53.0,30.00,North,360,0.0,0.0,98,0.09,,,0.17,Wunderground v.1.15,2013-06-07 06:34:00,
2013-06-07 02:39:00,53.6,53.0,30.00,North,360,0.0,0.0,98,0.14,,,0.18,Wunderground v.1.15,2013-06-07 06:39:00,
2013-06-07 02:44:00,53.6,53.0,30.00,North,360,0.0,0.0,98,0.10,,,0.19,Wunderground v.1.15,2013-06-07 06:44:00,
2013-06-07 02:49:00,53.6,53.0,30.00,North,360,0.0,0.0,98,0.10,,,0.19,Wunderground v.1.15,2013-06-07 06:49:00,
2013-06-07 02:54:00,53.5,52.9,30.00,North,360,0.0,0.0,98,0.09,,,0.20,Wunderground v.1.15,2013-06-07 06:54:00,
2013-06-07 02:59:00,53.5,52.9,29.99,North,360,0.0,0.0,98,0.06,,,0.20,Wunderground v.1.15,2013-06-07 06:59:00,
2013-06-07 03:04:00,53.5,52.9,29.99,North,360,0.0,0.0,98,0.06,,,0.21,Wunderground v.1.15,2013-06-07 07:04:00,
2013-06-07 03:09:00,53.5,52.9,29.99,North,360,0.0,0.0,98,0.11,,,0.22,Wunderground v.1.15,2013-06-07 07:09:00,
2013-06-07 03:14:00,53.5,52.9,29.99,North,360,0.0,0.0,98,0.06,,,0.22,Wunderground v.1.15,2013-06-07 07:14:00,
2013-06-07 03:19:00,53.5,52.9,29.99,North,360,0.0,0.0,98,0.05,,,0.23,Wunderground v.1.15,2013-06-07 07:19:00,
2013-06-07 03:24:00,53.5,52.9,29.99,North,360,0.0,0.0,98,0.05,,,0.23,Wunderground v.1.15,2013-06-07 07:24:00,
2013-06-07 03:29:00,53.5,52.9,29.99,North,360,0.0,0.0,98,0.07,,,0.24,Wunderground v.1.15,2013-06-07 07:29:00,
2013-06-07 03:34:00,53.5,52.9,29.99,North,360,1.0,1.0,98,0.08,,,0.25,Wunderground v.1.15,2013-06-07 07:34:00,
2013-06-07 03:39:00,53.3,52.8,29.99,North,360,0.0,2.0,98,0.10,,,0.26,Wunderground v.1.15,2013-06-07 07:39:00,
2013-06-07 03:44:00,53.3,52.8,29.99,North,360,0.0,1.0,98,0.10,,,0.26,Wunderground v.1.15,2013-06-07 07:44:00,
2013-06-07 03:49:00,53.3,52.8,29.99,North,360,0.0,1.0,98,0.08,,,0.27,Wunderground v.1.15,2013-06-07 07:49:00,
2013-06-07 03:54:00,53.3,52.8,29.99,North,360,2.0,3.0,98,0.07,,,0.27,Wunderground v.1.15,2013-06-07 07:54:00,
2013-06-07 03:59:00,53.2,52.7,29.99,North,360,0.0,3.0,98,0.07,,,0.28,Wunderground v.1.15,2013-06-07 07:59:00,
2013-06-07 04:04:00,53.2,52.7,29.99,North,360,0.0,1.0,98,0.06,,,0.28,Wunderground v.1.15,2013-06-07 08:04:00,
2013-06-07 04:10:00,53.2,52.7,29.99,North,360,0.0,3.0,98,0.05,,,0.29,Wunderground v.1.15,2013-06-07 08:10:00,
2013-06-07 04:15:00,53.2,52.7,29.99,North,360,0.0,2.0,98,0.05,,,0.29,Wunderground v.1.15,2013-06-07 08:15:00,
2013-06-07 04:20:00,53.2,52.7,29.99,North,360,0.0,0.0,98,0.07,,,0.30,Wunderground v.1.15,2013-06-07 08:20:00,
2013-06-07 04:25:00,53.2,52.7,29.99,North,360,0.0,1.0,98,0.07,,,0.30,Wunderground v.1.15,2013-06-07 08:25:00,
2013-06-07 04:30:00,53.2,52.7,29.99,North,360,0.0,0.0,98,0.05,,,0.31,Wunderground v.1.15,2013-06-07 08:30:00,
2013-06-07 04:35:00,53.3,52.8,29.99,North,360,0.0,0.0,98,0.05,,,0.31,Wunderground v.1.15,2013-06-07 08:35:00,
2013-06-07 04:40:00,53.3,52.8,29.99,North,360,0.0,0.0,98,0.08,,,0.32,Wunderground v.1.15,2013-06-07 08:40:00,
2013-06-07 04:45:00,53.5,52.9,29.99,North,360,0.0,2.0,98,0.06,,,0.00,Wunderground v.1.15,2013-06-07 08:45:00,
2013-06-07 04:50:00,53.5,52.9,29.99,North,360,1.0,3.0,98,0.06,,,0.01,Wunderground v.1.15,2013-06-07 08:50:00,
2013-06-07 04:55:00,53.5,52.9,29.99,SSE,153,3.0,10.0,98,0.06,,,0.01,Wunderground v.1.15,2013-06-07 08:55:00,
2013-06-07 05:00:00,53.3,52.8,29.99,SSE,163,3.0,6.0,98,0.04,,,0.01,Wunderground v.1.15,2013-06-07 09:00:00,
2013-06-07 05:05:00,53.1,52.6,29.99,SE,137,4.0,13.0,98,0.04,,,0.02,Wunderground v.1.15,2013-06-07 09:05:00,
2013-06-07 05:10:00,52.9,52.4,29.99,SSE,167,0.0,5.0,98,0.04,,,0.02,Wunderground v.1.15,2013-06-07 09:10:00,
2013-06-07 05:15:00,52.8,52.3,29.99,SSE,155,3.0,10.0,98,0.04,,,0.02,Wunderground v.1.15,2013-06-07 09:15:00,
2013-06-07 05:20:00,52.8,52.0,29.99,SSE,163,3.0,5.0,97,0.00,,,0.02,Wunderground v.1.15,2013-06-07 09:20:00,
2013-06-07 05:25:00,52.6,51.8,29.99,SSE,161,2.0,7.0,97,0.00,,,0.02,Wunderground v.1.15,2013-06-07 09:25:00,
2013-06-07 05:30:00,52.6,51.8,29.99,SSE,159,3.0,3.0,97,0.00,,,0.02,Wunderground v.1.15,2013-06-07 09:30:00,
2013-06-07 05:35:00,52.5,51.7,29.99,SSE,153,2.0,7.0,97,0.00,,,0.02,Wunderground v.1.15,2013-06-07 09:35:00,
2013-06-07 05:40:00,52.5,51.4,29.99,South,186,6.0,7.0,96,0.00,,,0.02,Wunderground v.1.15,2013-06-07 09:40:00,
2013-06-07 05:45:00,52.3,51.2,29.99,South,179,5.0,7.0,96,0.00,,,0.02,Wunderground v.1.15,2013-06-07 09:45:00,
2013-06-07 05:50:00,52.3,50.9,29.99,South,176,5.0,6.0,95,0.00,,,0.02,Wunderground v.1.15,2013-06-07 09:50:00,
2013-06-07 05:55:00,52.3,50.9,29.99,South,171,6.0,6.0,95,0.00,,,0.02,Wunderground v.1.15,2013-06-07 09:55:00,
2013-06-07 06:00:00,52.3,50.6,29.99,South,173,1.0,3.0,94,0.00,,,0.02,Wunderground v.1.15,2013-06-07 10:00:00,
2013-06-07 06:05:00,52.5,50.8,29.99,South,173,2.0,6.0,94,0.00,,,0.02,Wunderground v.1.15,2013-06-07 10:05:00,
2013-06-07 06:10:00,52.5,50.5,29.99,South,186,1.0,3.0,93,0.00,,,0.02,Wunderground v.1.15,2013-06-07 10:10:00,
2013-06-07 06:15:00,52.5,50.5,30.00,South,181,4.0,9.0,93,0.00,,,0.02,Wunderground v.1.15,2013-06-07 10:15:00,
2013-06-07 06:20:00,52.6,50.6,30.00,South,180,3.0,3.0,93,0.00,,,0.02,Wunderground v.1.15,2013-06-07 10:20:00,
2013-06-07 06:25:00,52.6,50.3,30.00,South,180,4.0,9.0,92,0.00,,,0.02,Wunderground v.1.15,2013-06-07 10:25:00,
2013-06-07 06:30:00,52.6,50.0,30.00,South,178,1.0,3.0,91,0.00,,,0.02,Wunderground v.1.15,2013-06-07 10:30:00,
2013-06-07 06:35:00,52.8,50.2,30.00,South,177,2.0,5.0,91,0.00,,,0.02,Wunderground v.1.15,2013-06-07 10:35:00,
2013-06-07 06:40:00,52.8,50.2,30.00,South,175,0.0,2.0,91,0.00,,,0.02,Wunderground v.1.15,2013-06-07 10:40:00,
2013-06-07 06:45:00,52.8,49.9,29.99,South,175,3.0,9.0,90,0.00,,,0.02,Wunderground v.1.15,2013-06-07 10:45:00,
2013-06-07 06:50:00,52.8,49.9,29.99,South,175,0.0,2.0,90,0.00,,,0.02,Wunderground v.1.15,2013-06-07 10:50:00,
2013-06-07 06:55:00,52.8,49.6,29.99,South,175,2.0,6.0,89,0.00,,,0.02,Wunderground v.1.15,2013-06-07 10:55:00,
2013-06-07 07:00:00,52.8,49.3,30.00,South,176,0.0,4.0,88,0.00,,,0.02,Wunderground v.1.15,2013-06-07 11:00:00,
2013-06-07 07:05:00,52.9,49.1,30.00,South,178,4.0,5.0,87,0.00,,,0.02,Wunderground v.1.15,2013-06-07 11:05:00,
2013-06-07 07:10:00,53.2,48.8,30.00,SSE,165,1.0,3.0,85,0.00,,,0.02,Wunderground v.1.15,2013-06-07 11:10:00,
2013-06-07 07:15:00,53.2,48.8,30.00,SSE,167,2.0,4.0,85,0.00,,,0.02,Wunderground v.1.15,2013-06-07 11:15:00,
2013-06-07 07:20:00,53.3,48.9,30.00,South,172,0.0,1.0,85,0.00,,,0.02,Wunderground v.1.15,2013-06-07 11:20:00,
2013-06-07 07:25:00,53.3,48.6,30.00,South,185,2.0,5.0,84,0.00,,,0.02,Wunderground v.1.15,2013-06-07 11:25:00,
2013-06-07 07:30:00,53.5,48.8,30.00,South,173,3.0,7.0,84,0.00,,,0.02,Wunderground v.1.15,2013-06-07 11:30:00,
2013-06-07 07:36:00,53.6,48.9,30.00,SSE,162,1.0,11.0,84,0.00,,,0.02,Wunderground v.1.15,2013-06-07 11:36:00,
2013-06-07 07:41:00,53.6,49.2,30.00,SSE,162,0.0,4.0,85,0.00,,,0.02,Wunderground v.1.15,2013-06-07 11:41:00,
2013-06-07 07:46:00,53.6,49.2,30.00,SSE,162,0.0,4.0,85,0.00,,,0.02,Wunderground v.1.15,2013-06-07 11:46:00,
2013-06-07 07:52:00,53.6,49.2,30.00,SSE,162,0.0,0.0,85,0.00,,,0.02,Wunderground v.1.15,2013-06-07 11:52:00,
2013-06-07 07:57:00,53.6,49.8,30.00,SSE,162,2.0,2.0,87,0.00,,,0.02,Wunderground v.1.15,2013-06-07 11:57:00,
2013-06-07 08:02:00,53.5,49.7,30.00,SSE,162,3.0,3.0,87,0.00,,,0.02,Wunderground v.1.15,2013-06-07 12:02:00,
2013-06-07 08:07:00,53.5,49.7,30.00,SSE,162,0.0,4.0,87,0.00,,,0.02,Wunderground v.1.15,2013-06-07 12:07:00,
2013-06-07 08:12:00,53.6,49.8,30.00,SSE,162,3.0,4.0,87,0.00,,,0.02,Wunderground v.1.15,2013-06-07 12:12:00,
2013-06-07 08:17:00,53.5,50.0,30.00,SSE,165,0.0,4.0,88,0.00,,,0.03,Wunderground v.1.15,2013-06-07 12:17:00,
2013-06-07 08:22:00,53.5,50.0,30.00,SSE,165,0.0,3.0,88,0.00,,,0.03,Wunderground v.1.15,2013-06-07 12:22:00,
2013-06-07 08:27:00,53.6,50.4,30.01,SSE,165,0.0,3.0,89,0.00,,,0.03,Wunderground v.1.15,2013-06-07 12:27:00,
2013-06-07 08:32:00,53.6,50.7,30.01,SSE,165,2.0,4.0,90,0.00,,,0.03,Wunderground v.1.15,2013-06-07 12:32:00,
2013-06-07 08:37:00,53.6,50.7,30.01,SSE,165,0.0,4.0,90,0.00,,,0.03,Wunderground v.1.15,2013-06-07 12:37:00,
2013-06-07 08:42:00,53.6,50.7,30.00,SSE,165,0.0,1.0,90,0.00,,,0.04,Wunderground v.1.15,2013-06-07 12:42:00,
2013-06-07 08:47:00,53.6,51.0,30.00,SSE,165,0.0,1.0,91,0.00,,,0.04,Wunderground v.1.15,2013-06-07 12:47:00,
2013-06-07 08:52:00,53.8,51.2,30.00,SSE,165,0.0,4.0,91,0.00,,,0.04,Wunderground v.1.15,2013-06-07 12:52:00,
2013-06-07 08:57:00,53.8,51.5,30.01,SSE,165,0.0,4.0,92,0.00,,,0.04,Wunderground v.1.15,2013-06-07 12:57:00,
2013-06-07 09:02:00,53.9,51.6,30.01,SSE,165,0.0,1.0,92,0.00,,,0.04,Wunderground v.1.15,2013-06-07 13:02:00,
2013-06-07 09:07:00,54.2,51.9,30.01,SSE,165,0.0,1.0,92,0.00,,,0.04,Wunderground v.1.15,2013-06-07 13:07:00,
2013-06-07 09:12:00,54.2,51.9,30.01,SSE,165,0.0,0.0,92,0.00,,,0.04,Wunderground v.1.15,2013-06-07 13:12:00,
2013-06-07 09:17:00,54.2,51.9,30.01,SSE,165,0.0,3.0,92,0.00,,,0.04,Wunderground v.1.15,2013-06-07 13:17:00,
2013-06-07 09:22:00,54.2,51.9,30.01,SSE,165,0.0,2.0,92,0.00,,,0.04,Wunderground v.1.15,2013-06-07 13:22:00,
2013-06-07 09:27:00,54.2,51.9,30.01,SSE,165,1.0,4.0,92,0.00,,,0.04,Wunderground v.1.15,2013-06-07 13:27:00,
2013-06-07 09:32:00,54.2,51.9,30.01,SSE,165,0.0,1.0,92,0.00,,,0.04,Wunderground v.1.15,2013-06-07 13:32:00,
2013-06-07 09:37:00,54.4,52.1,30.01,SSE,165,0.0,3.0,92,0.00,,,0.04,Wunderground v.1.15,2013-06-07 13:37:00,
2013-06-07 09:42:00,54.4,52.4,30.00,SSE,165,0.0,0.0,93,0.00,,,0.04,Wunderground v.1.15,2013-06-07 13:42:00,
2013-06-07 09:47:00,54.5,52.5,30.00,SSE,165,3.0,3.0,93,0.00,,,0.04,Wunderground v.1.15,2013-06-07 13:47:00,
2013-06-07 09:52:00,54.7,52.7,30.00,SSE,165,0.0,0.0,93,0.00,,,0.05,Wunderground v.1.15,2013-06-07 13:52:00,
2013-06-07 09:57:00,54.7,52.4,30.01,SSE,165,0.0,2.0,92,0.00,,,0.05,Wunderground v.1.15,2013-06-07 13:57:00,
2013-06-07 10:02:00,55.1,53.1,30.01,SSE,165,2.0,2.0,93,0.00,,,0.05,Wunderground v.1.15,2013-06-07 14:02:00,
2013-06-07 10:07:00,55.1,53.1,30.01,SSE,165,3.0,3.0,93,0.00,,,0.05,Wunderground v.1.15,2013-06-07 14:07:00,
2013-06-07 10:13:00,54.8,52.8,30.00,SSE,165,0.0,3.0,93,0.00,,,0.05,Wunderground v.1.15,2013-06-07 14:13:00,
2013-06-07 10:18:00,54.7,52.7,30.00,SSE,165,0.0,3.0,93,0.00,,,0.05,Wunderground v.1.15,2013-06-07 14:18:00,
2013-06-07 10:23:00,54.7,52.7,30.00,SSE,165,0.0,2.0,93,0.00,,,0.05,Wunderground v.1.15,2013-06-07 14:23:00,
2013-06-07 10:28:00,54.7,52.7,30.00,SSE,165,0.0,4.0,93,0.00,,,0.05,Wunderground v.1.15,2013-06-07 14:28:00,
2013-06-07 10:33:00,54.7,52.7,30.00,SSE,165,4.0,4.0,93,0.00,,,0.05,Wunderground v.1.15,2013-06-07 14:33:00,
2013-06-07 10:38:00,54.7,53.0,30.00,SSE,165,0.0,4.0,94,0.00,,,0.05,Wunderground v.1.15,2013-06-07 14:38:00,
2013-06-07 10:43:00,55.0,53.0,29.99,SSE,165,3.0,4.0,93,0.00,,,0.05,Wunderground v.1.15,2013-06-07 14:43:00,
2013-06-07 10:48:00,55.1,53.4,29.99,SSE,165,2.0,4.0,94,0.00,,,0.05,Wunderground v.1.15,2013-06-07 14:48:00,
2013-06-07 10:53:00,55.3,53.3,29.99,South,180,2.0,5.0,93,0.00,,,0.05,Wunderground v.1.15,2013-06-07 14:53:00,
2013-06-07 10:58:00,55.3,53.3,29.99,South,180,1.0,5.0,93,0.00,,,0.05,Wunderground v.1.15,2013-06-07 14:58:00,
2013-06-07 11:04:00,55.7,54.0,29.99,South,183,3.0,3.0,94,0.00,,,0.05,Wunderground v.1.15,2013-06-07 15:04:00,
2013-06-07 11:09:00,56.0,54.3,29.99,South,186,2.0,4.0,94,0.00,,,0.05,Wunderground v.1.15,2013-06-07 15:09:00,
2013-06-07 11:14:00,56.3,54.3,29.99,SSW,194,2.0,5.0,93,0.00,,,0.05,Wunderground v.1.15,2013-06-07 15:14:00,
2013-06-07 11:19:00,56.7,54.7,29.99,SSW,194,5.0,5.0,93,0.00,,,0.05,Wunderground v.1.15,2013-06-07 15:19:00,
2013-06-07 11:24:00,56.9,54.3,29.99,SSW,198,1.0,5.0,91,0.00,,,0.05,Wunderground v.1.15,2013-06-07 15:24:00,
2013-06-07 11:29:00,56.9,53.4,29.99,SSW,193,0.0,5.0,88,0.00,,,0.05,Wunderground v.1.15,2013-06-07 15:29:00,
2013-06-07 11:34:00,57.3,53.1,29.99,South,191,4.0,5.0,86,0.00,,,0.05,Wunderground v.1.15,2013-06-07 15:34:00,
2013-06-07 11:39:00,57.5,52.4,29.99,SSE,164,1.0,9.0,83,0.00,,,0.05,Wunderground v.1.15,2013-06-07 15:39:00,
2013-06-07 11:44:00,57.6,52.1,29.99,South,174,0.0,7.0,82,0.00,,,0.05,Wunderground v.1.15,2013-06-07 15:44:00,
2013-06-07 11:49:00,57.8,51.7,29.99,South,171,5.0,10.0,80,0.00,,,0.05,Wunderground v.1.15,2013-06-07 15:49:00,
2013-06-07 11:54:00,57.6,51.5,29.99,SSE,167,0.0,9.0,80,0.00,,,0.05,Wunderground v.1.15,2013-06-07 15:54:00,
2013-06-07 11:59:00,57.8,52.0,29.99,South,173,3.0,9.0,81,0.00,,,0.05,Wunderground v.1.15,2013-06-07 15:59:00,
2013-06-07 12:04:00,57.8,51.7,29.99,South,172,1.0,6.0,80,0.00,,,0.05,Wunderground v.1.15,2013-06-07 16:04:00,
2013-06-07 12:09:00,57.6,50.8,29.99,South,188,6.0,11.0,78,0.00,,,0.05,Wunderground v.1.15,2013-06-07 16:09:00,
2013-06-07 12:14:00,57.2,50.4,29.99,South,179,2.0,12.0,78,0.00,,,0.05,Wunderground v.1.15,2013-06-07 16:14:00,
2013-06-07 12:19:00,57.0,50.5,29.99,South,178,10.0,12.0,79,0.00,,,0.05,Wunderground v.1.15,2013-06-07 16:19:00,
2013-06-07 12:24:00,57.0,50.5,29.99,South,177,1.0,10.0,79,0.00,,,0.05,Wunderground v.1.15,2013-06-07 16:24:00,
2013-06-07 12:29:00,57.2,50.7,29.99,South,185,3.0,10.0,79,0.00,,,0.05,Wunderground v.1.15,2013-06-07 16:29:00,
2013-06-07 12:34:00,57.2,50.4,29.99,SSE,161,0.0,7.0,78,0.00,,,0.05,Wunderground v.1.15,2013-06-07 16:34:00,
2013-06-07 12:39:00,57.3,50.8,29.99,SSW,198,7.0,7.0,79,0.00,,,0.05,Wunderground v.1.15,2013-06-07 16:39:00,
2013-06-07 12:44:00,57.2,50.7,29.99,South,190,0.0,7.0,79,0.00,,,0.05,Wunderground v.1.15,2013-06-07 16:44:00,
2013-06-07 12:49:00,57.2,51.1,29.99,South,186,3.0,7.0,80,0.00,,,0.05,Wunderground v.1.15,2013-06-07 16:49:00,
2013-06-07 12:54:00,57.2,51.1,29.99,South,186,0.0,5.0,80,0.00,,,0.05,Wunderground v.1.15,2013-06-07 16:54:00,
2013-06-07 12:59:00,57.2,51.1,29.98,South,184,0.0,5.0,80,0.00,,,0.05,Wunderground v.1.15,2013-06-07 16:59:00,
2013-06-07 13:04:00,57.2,51.4,29.98,South,184,6.0,6.0,81,0.00,,,0.05,Wunderground v.1.15,2013-06-07 17:04:00,
2013-06-07 13:09:00,57.2,51.1,29.98,South,182,7.0,7.0,80,0.00,,,0.05,Wunderground v.1.15,2013-06-07 17:09:00,
2013-06-07 13:14:00,57.0,50.9,29.98,South,178,0.0,10.0,80,0.00,,,0.05,Wunderground v.1.15,2013-06-07 17:14:00,
2013-06-07 13:20:00,57.0,51.2,29.98,South,178,2.0,2.0,81,0.00,,,0.05,Wunderground v.1.15,2013-06-07 17:20:00,
2013-06-07 13:25:00,56.9,51.1,29.98,South,173,0.0,6.0,81,0.00,,,0.05,Wunderground v.1.15,2013-06-07 17:25:00,
2013-06-07 13:30:00,56.7,51.3,29.98,South,175,0.0,1.0,82,0.00,,,0.05,Wunderground v.1.15,2013-06-07 17:30:00,
2013-06-07 13:35:00,56.6,51.5,29.98,South,175,2.0,4.0,83,0.00,,,0.05,Wunderground v.1.15,2013-06-07 17:35:00,
2013-06-07 13:40:00,56.5,52.0,29.98,South,175,3.0,3.0,85,0.00,,,0.05,Wunderground v.1.15,2013-06-07 17:40:00,
2013-06-07 13:45:00,56.3,52.2,29.97,South,180,0.0,6.0,86,0.00,,,0.05,Wunderground v.1.15,2013-06-07 17:45:00,
2013-06-07 13:50:00,56.2,52.4,29.97,South,180,3.0,3.0,87,0.00,,,0.05,Wunderground v.1.15,2013-06-07 17:50:00,
2013-06-07 13:55:00,56.2,53.0,29.97,South,180,4.0,5.0,89,0.00,,,0.06,Wunderground v.1.15,2013-06-07 17:55:00,
2013-06-07 14:00:00,55.9,53.3,29.98,South,183,0.0,2.0,91,0.00,,,0.06,Wunderground v.1.15,2013-06-07 18:00:00,
2013-06-07 14:05:00,55.7,53.4,29.98,South,183,0.0,2.0,92,0.00,,,0.06,Wunderground v.1.15,2013-06-07 18:05:00,
2013-06-07 14:10:00,55.9,53.9,29.98,South,183,0.0,2.0,93,0.04,,,0.07,Wunderground v.1.15,2013-06-07 18:10:00,
2013-06-07 14:15:00,55.9,53.9,29.97,South,183,0.0,3.0,93,0.04,,,0.07,Wunderground v.1.15,2013-06-07 18:15:00,
2013-06-07 14:20:00,55.9,54.2,29.97,South,184,0.0,1.0,94,0.04,,,0.07,Wunderground v.1.15,2013-06-07 18:20:00,
2013-06-07 14:25:00,55.7,54.0,29.97,South,184,0.0,4.0,94,0.00,,,0.07,Wunderground v.1.15,2013-06-07 18:25:00,
2013-06-07 14:31:00,55.9,54.2,29.97,South,184,2.0,2.0,94,0.00,,,0.07,Wunderground v.1.15,2013-06-07 18:31:00,
2013-06-07 14:36:00,55.9,54.5,29.97,South,184,2.0,4.0,95,0.00,,,0.07,Wunderground v.1.15,2013-06-07 18:36:00,
2013-06-07 14:41:00,56.0,54.6,29.97,South,184,0.0,1.0,95,0.00,,,0.07,Wunderground v.1.15,2013-06-07 18:41:00,
2013-06-07 14:46:00,56.2,54.8,29.97,South,184,0.0,1.0,95,0.00,,,0.07,Wunderground v.1.15,2013-06-07 18:46:00,
2013-06-07 14:51:00,56.2,54.8,29.97,South,184,0.0,0.0,95,0.00,,,0.07,Wunderground v.1.15,2013-06-07 18:51:00,
2013-06-07 14:57:00,56.2,54.8,29.97,South,184,0.0,2.0,95,0.00,,,0.07,Wunderground v.1.15,2013-06-07 18:57:00,
2013-06-07 15:02:00,56.5,55.1,29.97,South,183,0.0,1.0,95,0.00,,,0.07,Wunderground v.1.15,2013-06-07 19:02:00,
2013-06-07 15:07:00,56.3,54.9,29.97,South,183,3.0,4.0,95,0.00,,,0.07,Wunderground v.1.15,2013-06-07 19:07:00,
2013-06-07 15:12:00,56.2,54.5,29.96,South,186,2.0,9.0,94,0.00,,,0.08,Wunderground v.1.15,2013-06-07 19:12:00,
2013-06-07 15:18:00,56.2,54.2,29.96,SSE,167,4.0,9.0,93,0.00,,,0.08,Wunderground v.1.15,2013-06-07 19:18:00,
2013-06-07 15:23:00,56.2,53.9,29.96,SSE,168,2.0,3.0,92,0.00,,,0.08,Wunderground v.1.15,2013-06-07 19:23:00,
2013-06-07 15:28:00,56.3,54.0,29.96,SSE,167,2.0,6.0,92,0.00,,,0.08,Wunderground v.1.15,2013-06-07 19:28:00,
2013-06-07 15:33:00,56.3,54.0,29.96,South,171,1.0,4.0,92,0.00,,,0.08,Wunderground v.1.15,2013-06-07 19:33:00,
2013-06-07 15:39:00,56.3,53.7,29.96,South,170,0.0,5.0,91,0.00,,,0.08,Wunderground v.1.15,2013-06-07 19:39:00,
2013-06-07 15:44:00,56.3,53.7,29.95,South,170,0.0,4.0,91,0.00,,,0.08,Wunderground v.1.15,2013-06-07 19:44:00,
2013-06-07 15:49:00,56.3,53.4,29.95,South,170,2.0,5.0,90,0.00,,,0.08,Wunderground v.1.15,2013-06-07 19:49:00,
2013-06-07 15:54:00,56.3,53.4,29.95,South,171,0.0,4.0,90,0.00,,,0.08,Wunderground v.1.15,2013-06-07 19:54:00,
2013-06-07 15:59:00,56.2,53.0,29.95,South,169,0.0,7.0,89,0.00,,,0.08,Wunderground v.1.15,2013-06-07 19:59:00,
2013-06-07 16:04:00,56.2,53.0,29.95,SSE,168,2.0,5.0,89,0.00,,,0.08,Wunderground v.1.15,2013-06-07 20:04:00,
2013-06-07 16:09:00,56.0,52.8,29.95,SSE,167,3.0,6.0,89,0.00,,,0.08,Wunderground v.1.15,2013-06-07 20:09:00,
2013-06-07 16:14:00,56.0,52.8,29.95,South,174,3.0,6.0,89,0.00,,,0.08,Wunderground v.1.15,2013-06-07 20:14:00,
2013-06-07 16:20:00,55.7,52.5,29.95,South,174,0.0,2.0,89,0.00,,,0.08,Wunderground v.1.15,2013-06-07 20:20:00,
2013-06-07 16:25:00,55.7,52.5,29.95,South,174,2.0,2.0,89,0.00,,,0.08,Wunderground v.1.15,2013-06-07 20:25:00,
2013-06-07 16:30:00,55.7,52.8,29.95,South,174,2.0,2.0,90,0.00,,,0.08,Wunderground v.1.15,2013-06-07 20:30:00,
2013-06-07 16:35:00,55.7,52.8,29.95,SSE,148,0.0,6.0,90,0.00,,,0.08,Wunderground v.1.15,2013-06-07 20:35:00,
2013-06-07 16:41:00,55.6,53.0,29.95,SE,142,2.0,2.0,91,0.00,,,0.08,Wunderground v.1.15,2013-06-07 20:41:00,
2013-06-07 16:46:00,55.4,52.8,29.94,SE,141,0.0,4.0,91,0.00,,,0.08,Wunderground v.1.15,2013-06-07 20:46:00,
2013-06-07 16:52:00,55.4,52.5,29.94,SE,140,4.0,5.0,90,0.00,,,0.08,Wunderground v.1.15,2013-06-07 20:52:00,
2013-06-07 16:57:00,55.6,53.0,29.94,SE,141,1.0,6.0,91,0.00,,,0.08,Wunderground v.1.15,2013-06-07 20:57:00,
2013-06-07 17:02:00,55.7,53.1,29.94,SE,142,0.0,3.0,91,0.00,,,0.08,Wunderground v.1.15,2013-06-07 21:02:00,
2013-06-07 17:07:00,55.9,53.3,29.94,SE,142,0.0,3.0,91,0.00,,,0.08,Wunderground v.1.15,2013-06-07 21:07:00,
2013-06-07 17:13:00,55.7,52.8,29.94,SE,142,0.0,0.0,90,0.00,,,0.08,Wunderground v.1.15,2013-06-07 21:13:00,
2013-06-07 17:18:00,55.6,52.7,29.94,SE,146,0.0,4.0,90,0.00,,,0.08,Wunderground v.1.15,2013-06-07 21:18:00,
2013-06-07 17:23:00,55.4,52.5,29.94,SSE,148,3.0,5.0,90,0.00,,,0.08,Wunderground v.1.15,2013-06-07 21:23:00,
2013-06-07 17:28:00,55.6,52.7,29.93,SSE,148,0.0,5.0,90,0.00,,,0.08,Wunderground v.1.15,2013-06-07 21:28:00,
2013-06-07 17:33:00,55.6,52.7,29.93,SSE,148,2.0,3.0,90,0.00,,,0.08,Wunderground v.1.15,2013-06-07 21:33:00,
2013-06-07 17:38:00,55.7,53.1,29.93,SSE,148,0.0,3.0,91,0.00,,,0.08,Wunderground v.1.15,2013-06-07 21:38:00,
2013-06-07 17:44:00,55.6,52.7,29.93,SSE,148,3.0,3.0,90,0.00,,,0.08,Wunderground v.1.15,2013-06-07 21:44:00,
2013-06-07 17:49:00,55.6,53.0,29.93,SSE,148,2.0,3.0,91,0.00,,,0.08,Wunderground v.1.15,2013-06-07 21:49:00,
2013-06-07 17:55:00,55.6,53.0,29.93,SSE,148,0.0,1.0,91,0.00,,,0.08,Wunderground v.1.15,2013-06-07 21:55:00,
2013-06-07 18:00:00,55.6,53.0,29.92,SSE,148,2.0,2.0,91,0.00,,,0.08,Wunderground v.1.15,2013-06-07 22:00:00,
2013-06-07 18:05:00,55.6,53.0,29.92,SE,136,0.0,3.0,91,0.00,,,0.09,Wunderground v.1.15,2013-06-07 22:05:00,
2013-06-07 18:10:00,55.6,53.0,29.92,SE,136,0.0,0.0,91,0.00,,,0.09,Wunderground v.1.15,2013-06-07 22:10:00,
2013-06-07 18:15:00,55.6,53.0,29.92,SE,136,1.0,2.0,91,0.00,,,0.09,Wunderground v.1.15,2013-06-07 22:15:00,
2013-06-07 18:20:00,55.6,53.3,29.92,SE,136,0.0,0.0,92,0.00,,,0.09,Wunderground v.1.15,2013-06-07 22:20:00,
2013-06-07 18:25:00,55.4,52.8,29.92,SE,141,0.0,6.0,91,0.00,,,0.09,Wunderground v.1.15,2013-06-07 22:25:00,
2013-06-07 18:30:00,55.3,53.0,29.92,SE,141,0.0,2.0,92,0.00,,,0.10,Wunderground v.1.15,2013-06-07 22:30:00,
2013-06-07 18:36:00,55.1,52.8,29.92,SE,141,0.0,2.0,92,0.00,,,0.10,Wunderground v.1.15,2013-06-07 22:36:00,
2013-06-07 18:42:00,55.1,53.1,29.92,SE,141,0.0,0.0,93,0.00,,,0.10,Wunderground v.1.15,2013-06-07 22:42:00,
2013-06-07 18:47:00,55.1,53.1,29.92,SE,141,0.0,0.0,93,0.00,,,0.10,Wunderground v.1.15,2013-06-07 22:47:00,
2013-06-07 18:52:00,55.0,53.0,29.92,SE,141,1.0,1.0,93,0.00,,,0.10,Wunderground v.1.15,2013-06-07 22:52:00,
2013-06-07 18:57:00,54.8,52.8,29.92,SE,141,0.0,2.0,93,0.00,,,0.10,Wunderground v.1.15,2013-06-07 22:57:00,
2013-06-07 19:02:00,54.8,52.8,29.92,SE,141,0.0,2.0,93,0.00,,,0.10,Wunderground v.1.15,2013-06-07 23:02:00,
2013-06-07 19:07:00,54.8,52.8,29.92,SE,141,0.0,2.0,93,0.00,,,0.10,Wunderground v.1.15,2013-06-07 23:07:00,
2013-06-07 19:12:00,54.7,52.7,29.92,SE,141,1.0,1.0,93,0.00,,,0.10,Wunderground v.1.15,2013-06-07 23:12:00,
2013-06-07 19:17:00,54.7,52.7,29.92,SE,141,0.0,2.0,93,0.00,,,0.11,Wunderground v.1.15,2013-06-07 23:17:00,
2013-06-07 19:22:00,54.4,52.7,29.92,SE,141,0.0,2.0,94,0.06,,,0.12,Wunderground v.1.15,2013-06-07 23:22:00,
2013-06-07 19:28:00,54.4,52.7,29.91,SE,141,0.0,2.0,94,0.06,,,0.12,Wunderground v.1.15,2013-06-07 23:28:00,
2013-06-07 19:33:00,54.4,52.7,29.91,SE,141,0.0,0.0,94,0.05,,,0.12,Wunderground v.1.15,2013-06-07 23:33:00,
2013-06-07 19:38:00,54.4,52.7,29.91,SE,141,0.0,0.0,94,0.04,,,0.12,Wunderground v.1.15,2013-06-07 23:38:00,
2013-06-07 19:43:00,54.4,52.7,29.91,SE,141,0.0,0.0,94,0.00,,,0.12,Wunderground v.1.15,2013-06-07 23:43:00,
2013-06-07 19:49:00,54.2,52.8,29.91,SE,141,0.0,0.0,95,0.00,,,0.12,Wunderground v.1.15,2013-06-07 23:49:00,
2013-06-07 19:54:00,54.2,52.8,29.91,SE,141,0.0,0.0,95,0.00,,,0.12,Wunderground v.1.15,2013-06-07 23:54:00,
2013-06-07 19:59:00,54.2,52.8,29.91,SE,141,0.0,0.0,95,0.00,,,0.12,Wunderground v.1.15,2013-06-07 23:59:00,
2013-06-07 20:04:00,54.4,53.0,29.91,SE,141,0.0,0.0,95,0.00,,,0.12,Wunderground v.1.15,2013-06-08 00:04:00,
2013-06-07 20:09:00,54.2,52.8,29.91,SE,141,0.0,0.0,95,0.00,,,0.12,Wunderground v.1.15,2013-06-08 00:09:00,
2013-06-07 20:15:00,54.1,52.7,29.90,SE,141,0.0,0.0,95,0.00,,,0.12,Wunderground v.1.15,2013-06-08 00:15:00,
2013-06-07 20:20:00,54.2,52.8,29.90,SE,141,0.0,0.0,95,0.00,,,0.12,Wunderground v.1.15,2013-06-08 00:20:00,
2013-06-07 20:26:00,54.4,53.0,29.90,SE,141,0.0,0.0,95,0.00,,,0.12,Wunderground v.1.15,2013-06-08 00:26:00,
2013-06-07 20:31:00,54.4,53.0,29.90,SE,141,0.0,0.0,95,0.00,,,0.12,Wunderground v.1.15,2013-06-08 00:31:00,
2013-06-07 20:36:00,54.5,53.1,29.90,SE,141,0.0,0.0,95,0.00,,,0.12,Wunderground v.1.15,2013-06-08 00:36:00,
2013-06-07 20:41:00,54.5,53.1,29.90,SE,141,0.0,0.0,95,0.00,,,0.12,Wunderground v.1.15,2013-06-08 00:41:00,
2013-06-07 20:47:00,54.5,53.1,29.90,SE,141,0.0,1.0,95,0.00,,,0.12,Wunderground v.1.15,2013-06-08 00:47:00,
2013-06-07 20:53:00,54.4,53.3,29.90,SE,141,0.0,1.0,96,0.00,,,0.12,Wunderground v.1.15,2013-06-08 00:53:00,
2013-06-07 20:58:00,54.4,53.3,29.89,SE,141,0.0,1.0,96,0.00,,,0.12,Wunderground v.1.15,2013-06-08 00:58:00,
2013-06-07 21:03:00,54.4,53.3,29.89,SE,141,0.0,2.0,96,0.00,,,0.12,Wunderground v.1.15,2013-06-08 01:03:00,
2013-06-07 21:08:00,54.2,53.1,29.89,SE,141,0.0,2.0,96,0.00,,,0.12,Wunderground v.1.15,2013-06-08 01:08:00,
2013-06-07 21:13:00,54.4,53.3,29.89,SE,141,2.0,2.0,96,0.00,,,0.12,Wunderground v.1.15,2013-06-08 01:13:00,
2013-06-07 21:19:00,54.2,53.1,29.89,SE,141,0.0,2.0,96,0.00,,,0.12,Wunderground v.1.15,2013-06-08 01:19:00,
2013-06-07 21:24:00,54.2,53.1,29.89,SE,141,0.0,0.0,96,0.00,,,0.12,Wunderground v.1.15,2013-06-08 01:24:00,
2013-06-07 21:29:00,54.2,53.1,29.89,SE,141,0.0,1.0,96,0.00,,,0.12,Wunderground v.1.15,2013-06-08 01:29:00,
2013-06-07 21:34:00,54.2,53.1,29.89,SE,141,0.0,0.0,96,0.00,,,0.12,Wunderground v.1.15,2013-06-08 01:34:00,
2013-06-07 21:39:00,54.2,53.1,29.89,SE,141,0.0,1.0,96,0.00,,,0.12,Wunderground v.1.15,2013-06-08 01:39:00,
2013-06-07 21:45:00,54.4,53.3,29.89,SE,141,0.0,0.0,96,0.00,,,0.12,Wunderground v.1.15,2013-06-08 01:45:00,
2013-06-07 21:50:00,54.4,53.3,29.89,SE,141,0.0,0.0,96,0.00,,,0.12,Wunderground v.1.15,2013-06-08 01:50:00,
2013-06-07 21:55:00,54.2,53.1,29.89,SE,141,0.0,1.0,96,0.00,,,0.12,Wunderground v.1.15,2013-06-08 01:55:00,
2013-06-07 22:01:00,54.2,53.1,29.89,SE,141,0.0,1.0,96,0.00,,,0.12,Wunderground v.1.15,2013-06-08 02:01:00,
2013-06-07 22:06:00,54.2,53.4,29.89,SE,141,0.0,1.0,97,0.00,,,0.12,Wunderground v.1.15,2013-06-08 02:06:00,
2013-06-07 22:11:00,54.1,53.3,29.89,SE,141,0.0,0.0,97,0.00,,,0.12,Wunderground v.1.15,2013-06-08 02:11:00,
2013-06-07 22:16:00,54.1,53.3,29.89,SE,141,0.0,0.0,97,0.00,,,0.13,Wunderground v.1.15,2013-06-08 02:16:00,
2013-06-07 22:22:00,54.1,53.3,29.89,SE,141,0.0,2.0,97,0.00,,,0.13,Wunderground v.1.15,2013-06-08 02:22:00,
2013-06-07 22:27:00,53.9,53.1,29.89,SE,141,0.0,2.0,97,0.00,,,0.13,Wunderground v.1.15,2013-06-08 02:27:00,
2013-06-07 22:32:00,53.9,53.1,29.89,SE,141,0.0,0.0,97,0.00,,,0.13,Wunderground v.1.15,2013-06-08 02:32:00,
2013-06-07 22:37:00,53.9,53.1,29.89,SE,141,0.0,0.0,97,0.00,,,0.14,Wunderground v.1.15,2013-06-08 02:37:00,
2013-06-07 22:44:00,53.9,53.1,29.88,SE,141,0.0,0.0,97,0.00,,,0.14,Wunderground v.1.15,2013-06-08 02:44:00,
2013-06-07 22:49:00,53.9,53.1,29.88,SE,141,0.0,2.0,97,0.00,,,0.14,Wunderground v.1.15,2013-06-08 02:49:00,
2013-06-07 22:54:00,53.9,53.1,29.88,SE,141,0.0,1.0,97,0.00,,,0.14,Wunderground v.1.15,2013-06-08 02:54:00,
2013-06-07 22:59:00,53.8,53.0,29.88,SE,141,0.0,1.0,97,0.00,,,0.14,Wunderground v.1.15,2013-06-08 02:59:00,
2013-06-07 23:05:00,53.8,53.0,29.88,SE,141,0.0,0.0,97,0.00,,,0.14,Wunderground v.1.15,2013-06-08 03:05:00,
2013-06-07 23:10:00,53.8,53.0,29.88,SE,141,0.0,0.0,97,0.00,,,0.14,Wunderground v.1.15,2013-06-08 03:10:00,
2013-06-07 23:15:00,53.8,53.0,29.87,SE,141,0.0,0.0,97,0.00,,,0.14,Wunderground v.1.15,2013-06-08 03:15:00,
2013-06-07 23:21:00,53.8,53.0,29.87,SE,141,0.0,0.0,97,0.00,,,0.14,Wunderground v.1.15,2013-06-08 03:21:00,
2013-06-07 23:27:00,53.8,53.0,29.87,SE,141,1.0,2.0,97,0.00,,,0.14,Wunderground v.1.15,2013-06-08 03:27:00,
2013-06-07 23:32:00,53.8,53.0,29.87,SE,141,0.0,0.0,97,0.00,,,0.14,Wunderground v.1.15,2013-06-08 03:32:00,
2013-06-07 23:37:00,53.8,53.0,29.87,SE,141,0.0,0.0,97,0.00,,,0.14,Wunderground v.1.15,2013-06-08 03:37:00,
2013-06-07 23:43:00,53.8,53.0,29.86,SE,141,0.0,0.0,97,0.00,,,0.15,Wunderground v.1.15,2013-06-08 03:43:00,
2013-06-07 23:49:00,53.8,53.0,29.86,SE,141,0.0,1.0,97,0.00,,,0.15,Wunderground v.1.15,2013-06-08 03:49:00,
2013-06-07 23:54:00,53.8,53.0,29.86,SE,141,0.0,0.0,97,0.00,,,0.15,Wunderground v.1.15,2013-06-08 03:54:00,
2013-06-07 23:59:00,53.8,53.0,29.86,SE,141,0.0,0.0,97,0.00,,,0.15,Wunderground v.1.15,2013-06-08 03:59:00,